Location: Gro�ballhausen
(51.1559°N, 10.8947°E)
Time: 00:44:06
(UTC+00:00)

Daily predictions for brighter satellites

Satellite Brightness Start Highest point End
(mag) Time Altitude Azimuth Time Altitude Azimuth Time Altitude Azimuth
SL-16 R/B 3.2 00:12:20 50° NE 00:12:20 50° NE 00:17:25 10° N
Cosmos 1943 Rocket 3.7 00:17:17 31° NNW 00:17:17 31° NNW 00:20:59 10° NNE
COSMOS 2455 4.5 00:18:59 25° NW 00:19:48 26° NNW 00:24:49 10° NNE
CZ-2D R/B 3.7 00:17:28 10° NNE 00:20:45 29° ENE 00:20:45 29° ENE
ATLAS 5 CENTAUR R/B 4.2 00:26:24 15° ENE 00:26:24 15° ENE 00:27:24 10° ENE
Cosmos 2297 Rocket 3.3 00:24:27 10° NNW 00:28:49 42° NNE 00:28:49 42° NNE
Resurs 1-4 Rocket 3.4 00:31:24 10° NNE 00:34:53 35° NE 00:34:53 35° NE
Cosmos 2369 Rocket 3.5 00:41:05 32° NNW 00:41:05 32° NNW 00:45:11 10° NNE
Nadezhda 1 Rocket 4.5 00:42:41 53° N 00:42:41 53° N 00:47:17 10° N
Gbstr 26 Del rocket 4.4 00:44:54 86° NE 00:44:54 86° NE 00:52:39 10° E
CZ-4C R/B 3.8 00:47:10 28° NW 00:48:38 31° NNW 00:54:36 10° NE
USA 267 4.3 00:49:56 10° ENE 00:54:57 32° ESE 00:54:57 32° ESE
ATLAS 2AS CENTAUR R/B 4.4 00:51:30 10° WNW 00:58:26 32° N 01:05:03 10° ENE
SL-8 Rocket 4.1 01:06:44 10° N 01:12:12 69° NNW 01:12:12 69° NNW
Meteor 2-2 Rocket 4.5 01:23:00 64° N 01:23:00 64° N 01:27:58 10° N
Cosmos 2218 Rocket 4.0 01:17:59 10° N 01:24:06 81° NW 01:24:06 81° NW
Cosmos 2366 rocket 3.9 01:20:35 10° N 01:26:34 80° NW 01:26:34 80° NW
Cosmos 2227 Rocket 2.9 01:21:26 10° NNW 01:25:13 44° NNW 01:25:13 44° NNW
Cosmos 1992 Rocket 4.4 01:30:28 59° ENE 01:30:28 59° ENE 01:35:02 10° NNE
Cosmos 1656 4.2 01:30:38 50° ESE 01:30:38 50° ESE 01:35:49 10° NE
Lacrosse 5 3.6 01:32:48 23° ESE 01:32:48 23° ESE 01:36:08 10° ENE
USA 234 3.2 01:26:33 10° ESE 01:33:05 86° NNE 01:37:44 21° WNW
ADEOS II 2.3 01:33:13 10° NNE 01:38:28 64° ESE 01:38:28 64° ESE
CZ-4B R/B 3.7 01:36:00 10° NNE 01:40:47 69° E 01:40:47 69° E
Cosmos 864 Rocket 4.5 01:37:52 10° NNW 01:43:28 65° WNW 01:43:28 65° WNW
SL-08 R/B 3.6 01:47:13 65° NE 01:47:13 65° NE 01:51:38 10° N
Cosmos 2181 Rocket 3.9 01:47:57 67° WNW 01:47:57 67° WNW 01:54:08 10° N
SL-08 R/B 4.4 01:41:41 10° N 01:48:07 90° WNW 01:49:27 60° S
Cosmos 1633 Rocket 3.9 01:45:44 10° N 01:48:58 47° N 01:48:58 47° N
IDEFIX/ARIANE 42P 3.9 01:46:30 10° NNE 01:51:20 35° E 01:53:41 24° SE
IRS-1C 4.5 01:49:38 10° NNE 01:54:56 59° ESE 01:55:56 50° SE
Cosmos 1666 Rocket 4.5 01:50:47 10° N 01:53:47 42° NNW 01:53:47 42° NNW
SL-16 R/B 3.7 01:57:26 27° WNW 01:57:26 27° WNW 02:00:51 10° NNW
Cosmos 1241 Rocket 4.3 01:54:48 68° WSW 01:55:32 77° NW 02:02:01 10° NE
Cosmos 1606 4.0 01:59:13 37° NNE 01:59:13 37° NNE 02:01:37 10° NNE
ATLAS CENTAUR R/B 4.4 01:42:17 10° W 01:59:50 62° NNW 02:06:07 10° ENE
ARIANE 5 R/B 3.1 01:55:31 10° NNE 02:00:31 50° E 02:01:51 40° SE
Cosmos 1151 Rocket 3.6 02:00:39 53° E 02:00:41 53° E 02:04:55 10° NNE
IRS-1D 3.5 01:56:14 10° NNE 02:01:37 79° WNW 02:01:47 78° W
CZ-2D R/B 2.8 01:57:30 10° N 02:02:04 41° NW 02:02:04 41° NW
AQUA 4.4 01:58:18 10° N 02:02:08 46° NW 02:02:08 46° NW
ATLAS 5 CENTAUR R/B 2.2 02:07:56 46° NNW 02:07:56 46° NNW 02:12:28 10° NE
NPP 4.1 02:03:31 10° N 02:08:28 44° WNW 02:08:28 44° WNW
Genesis I 4.4 02:12:59 36° N 02:12:59 36° N 02:15:53 10° NNE
CBERS-1 3.9 02:08:42 10° N 02:13:47 67° WNW 02:13:59 66° W
Cosmos 2297 Rocket 3.9 02:08:45 10° NW 02:10:32 19° NW 02:10:32 19° NW
Resurs 1-4 Rocket 3.0 02:11:31 10° N 02:15:58 32° WNW 02:15:58 32° WNW
Cosmos 1933 3.4 02:18:15 75° NNE 02:18:15 75° NNE 02:22:02 10° NNE
Cosmos 2082 3.6 02:12:44 10° NW 02:18:23 67° WSW 02:20:23 40° S
USA 305 3.9 02:22:42 36° SE 02:22:42 36° SE 02:26:35 10° ENE
Cosmos 2369 Rocket 4.5 02:23:11 10° NW 02:25:49 13° NNW 02:28:29 10° N
USA 306 3.8 02:26:37 38° SSE 02:26:43 38° SE 02:30:40 10° ENE
Meteor 1-26 Rocket 4.4 02:24:04 29° S 02:26:50 64° E 02:32:12 10° NNE
X-37B 3.1 02:29:08 15° SE 02:29:08 15° SE 02:30:01 10° ESE
CZ-2D R/B 3.9 02:23:29 10° NNE 02:27:39 61° ESE 02:28:45 44° SSE
SJ 16-02 2.9 02:24:30 10° N 02:28:35 36° ENE 02:32:39 10° SE
Meteor 1-25 Rocket 4.2 02:24:24 10° NNW 02:30:13 71° W 02:33:00 32° S
Gbstr 26 Del rocket 4.4 02:27:26 26° W 02:32:32 87° SSW 02:40:05 10° ESE
Cosmos 389 Rocket 3.7 02:32:18 31° SE 02:33:18 39° E 02:36:39 10° NNE
ASTEX 1 3.5 02:28:40 10° N 02:33:41 75° E 02:36:22 28° S
IRS-P3 4.1 02:28:48 10° NNE 02:34:07 68° WNW 02:35:28 49° SW
Cosmos 1697 Rocket 2.6 02:32:33 43° SSW 02:34:29 82° ESE 02:40:08 10° NNE
CZ-2C R/B 4.3 02:33:09 10° NNE 02:37:38 30° E 02:42:09 10° SSE
H-2A R/B 2.6 02:33:24 10° SSE 02:37:42 61° ENE 02:42:07 10° N
Cosmos 1980 Rocket 2.8 02:35:19 23° S 02:38:39 52° ESE 02:44:09 10° NE
CZ-4C R/B 4.3 02:33:29 10° NW 02:39:03 31° NNE 02:45:30 10° ENE
USA 267 3.2 02:32:45 10° ENE 02:39:20 85° SSE 02:42:17 36° SW
ERS-2 3.7 02:37:45 10° SE 02:41:08 36° ENE 02:44:32 10° N
Iridium 2 4.2 02:39:48 33° SSE 02:41:13 57° E 02:44:55 10° NNE
Cosmos 1602 3.5 02:39:20 10° NNW 02:43:10 75° W 02:43:13 75° WSW
ERS-1 4.4 02:38:43 10° NNE 02:43:51 74° WNW 02:45:42 40° SW
Cosmos 2263 Rocket 2.6 02:39:04 10° NNW 02:44:42 64° NE 02:50:20 10° SE
SL-8 R/B 3.8 02:46:01 50° SW 02:46:39 54° SSW 02:51:18 10° ESE
Meteor 1-14 Rocket 4.1 02:41:19 10° NNW 02:47:00 86° W 02:52:34 10° S
Helios 1B 4.5 02:43:13 11° SSE 02:47:18 88° WSW 02:51:41 10° NNW
Cosmos 1818 4.2 02:46:11 34° W 02:47:53 44° NW 02:53:08 10° NE
ATLAS 2AS CENTAUR R/B 3.8 02:43:47 10° NW 02:51:14 48° NNE 02:58:09 10° ESE
SL-16 R/B 4.4 02:47:50 10° SSE 02:52:07 22° ESE 02:56:23 10° NE
Cosmos 1821 Rocket 4.2 02:47:24 10° NNW 02:53:26 48° W 02:56:30 27° SSW
USA 307 3.3 02:52:25 41° SSW 02:53:27 53° SSE 02:57:36 10° ENE
Cosmos 1470 Rocket 3.8 02:50:39 10° NNW 02:54:55 47° W 02:55:26 45° WSW
Cosmos 2227 4.3 02:49:59 10° NNW 02:55:42 79° ENE 03:01:20 10° SSE
USA 308 3.2 02:55:23 41° SSW 02:56:31 55° SSE 03:00:42 10° ENE
Cosmos 1812 4.2 02:53:00 10° SSE 02:56:32 36° E 03:00:06 10° NNE
Spot 4 Rocket 3.9 02:51:35 10° NNE 02:56:46 81° WNW 02:59:44 26° SSW
Cosmos 1500 3.4 02:56:07 10° N 02:59:59 70° ENE 03:03:48 10° SSE
Landsat 5 3.5 03:01:15 10° S 03:05:47 75° WSW 03:10:17 10° NNW
Cosmos 1666 4.2 03:02:10 10° N 03:05:48 38° ENE 03:09:24 10° SE
Meteor 1-5 Rocket 4.2 03:01:08 10° N 03:06:28 78° ENE 03:11:50 10° SSE
Cosmos 1934 Rocket 3.9 03:02:36 10° NNW 03:08:34 59° W 03:14:29 10° S
Cosmos 2227 Rocket 4.3 03:06:50 10° WNW 03:06:57 10° WNW 03:06:57 10° WNW
Cosmos 1238 Rocket 4.0 03:04:13 10° NNW 03:10:49 65° W 03:16:59 10° S
Cosmos 1782 2.9 03:10:11 35° SW 03:11:36 56° WNW 03:15:35 10° N
Cosmos 1898 Rocket 4.0 03:08:13 10° NNW 03:13:27 64° ENE 03:18:41 10° SE
Cosmos 1656 4.5 03:12:05 25° W 03:14:21 35° NW 03:19:26 10° NNE
Lacrosse 5 1.8 03:12:00 29° SW 03:14:35 85° SSE 03:19:42 10° ENE
ADEOS Rocket 3.3 03:09:35 10° SSE 03:16:23 76° ENE 03:22:30 10° NNW
CZ-4B R/B 2.7 03:13:29 10° SE 03:16:27 41° ENE 03:19:33 10° N
CZ-2C R/B 2.6 03:12:47 10° N 03:16:32 67° WNW 03:18:32 26° SSW
USA 234 3.6 03:10:30 10° SSE 03:16:33 39° SW 03:22:37 10° WNW
Cosmos 1515 Rocket 3.8 03:15:08 28° SW 03:17:09 50° WNW 03:21:31 10° N
ADEOS II 3.3 03:13:35 10° N 03:17:47 25° WNW 03:19:23 21° W
IRIDIUM 114 4.4 03:14:35 10° N 03:19:51 85° E 03:25:05 10° S
Nadezhda 3 Rocket 4.5 03:18:39 23° SW 03:21:54 40° WNW 03:27:41 10° N
USA 276 2.2 03:21:38 40° WSW 03:22:36 66° S 03:25:48 10° E
USA 32 4.5 03:18:45 10° N 03:23:59 66° E 03:29:12 10° SSE
Cosmos 972 Rocket 4.3 03:24:15 24° WSW 03:26:43 43° WNW 03:31:26 10° NNE
MSX 3.9 03:21:31 10° N 03:27:15 64° WNW 03:32:39 11° SSW
Cosmos 1356 4.0 03:24:15 10° NNW 03:27:25 34° W 03:28:27 28° SW
Cosmos 44 3.3 03:24:49 18° SSW 03:28:04 72° SE 03:32:45 10° NE
IRIDIUM 103 4.3 03:23:45 10° N 03:29:00 82° W 03:34:13 10° S
IDEFIX/ARIANE 42P 3.1 03:26:04 10° N 03:31:01 42° WNW 03:34:28 18° SW
Cosmos 1605 Rocket 4.0 03:25:03 10° NNW 03:31:21 62° W 03:37:38 10° S
Meteor 1-11 Rocket 3.9 03:25:43 10° NNW 03:31:37 83° ENE 03:37:19 10° SSE
Cosmos 921 Rocket 3.0 03:27:48 10° SSW 03:31:55 79° ESE 03:36:08 10° NNE
Cosmos 1933 Rocket 4.4 03:28:23 10° NNW 03:32:10 29° W 03:34:17 19° SW
Cosmos 2278 3.8 03:28:10 18° SW 03:32:27 66° WNW 03:38:09 10° NNE
CZ-3B R/B 2.9 03:32:05 21° W 03:34:22 67° N 03:45:49 10° ENE
Cosmos 2228 Rocket 3.1 03:31:12 12° SSW 03:35:17 62° WNW 03:39:41 10° N
SAR-Lupe-4 3.9 03:34:34 10° SSE 03:38:07 68° ENE 03:41:43 10° N
Cosmos 1151 Rocket 4.5 03:37:30 18° W 03:38:35 20° WNW 03:41:49 10° NNW
ARIANE 5 R/B 3.5 03:35:02 10° N 03:39:24 29° WNW 03:42:11 18° WSW
Cosmos 2369 4.2 03:36:41 19° WSW 03:40:32 44° NW 03:46:03 10° NNE
Cosmos 1937 Rocket 3.6 03:37:25 10° NNW 03:42:37 79° ENE 03:47:44 10° SSE
CZ-4C R/B 4.1 03:42:40 16° SW 03:44:41 25° W 03:47:43 10° NW
ALOS 3.4 03:41:46 10° NNE 03:46:18 47° E 03:50:48 10° S
Cosmos 1733 Rocket 3.6 03:42:07 10° N 03:46:27 61° ENE 03:50:45 10° SSE
IRIDIUM 106 4.4 03:42:09 10° N 03:47:18 59° W 03:52:24 10° SSW
Meteor 1-27 Rocket 4.2 03:42:49 10° S 03:48:43 70° E 03:54:36 10° NNE
Cosmos 1536 2.9 03:46:08 10° N 03:50:14 86° E 03:54:19 10° S
SAR-Lupe-1 4.0 03:46:51 10° SSE 03:50:25 89° ENE 03:54:01 10° NNW
Cosmos 1869 Rocket 3.9 03:47:08 10° NNW 03:51:17 43° W 03:55:22 10° SSW
ATLAS 5 CENTAUR R/B 3.6 03:49:57 10° WNW 03:53:34 22° N 03:57:37 10° NE
Cosmos 1484 Rocket 3.6 03:51:14 10° NNE 03:55:11 57° E 03:59:07 10° S
Meteor 1-4 Rocket 2.4 03:54:02 10° SSW 03:57:29 68° WNW 04:01:01 10° N
USA 305 2.9 03:58:51 14° WSW 04:02:30 78° NNW 04:06:46 10° ENE
X-37B 2.1 04:01:25 14° WSW 04:03:29 24° S 04:06:08 10° SE
Cosmos 1862 Rocket 4.5 04:00:05 10° S 04:04:21 53° E 04:08:37 10° NNE
Cosmos 1689 Rocket 2.4 04:01:56 10° SSE 04:04:52 70° ENE 04:07:51 10° N
Meteor 1-31 Rocket 3.4 04:02:10 10° NNE 04:05:58 60° E 04:09:45 10° S
Cosmos 2100 Rocket 4.0 03:59:36 10° NNW 04:06:01 80° W 04:12:23 10° S
USA 306 2.9 04:02:46 13° WSW 04:06:34 76° NNW 04:10:51 10° ENE
SJ 16-02 2.1 04:03:14 10° NW 04:07:06 30° WSW 04:10:57 10° SSW
Cosmos 1763 Rocket 3.7 04:02:40 10° SSW 04:08:00 83° ESE 04:13:20 10° NNE
Cosmos 1727 Rocket 4.1 04:01:41 10° SSW 04:08:00 67° WNW 04:14:20 10° N
Cosmos 389 Rocket 4.1 04:06:11 12° WSW 04:08:11 18° WNW 04:10:46 10° NNW
Cosmos 1802 Rocket 4.1 04:02:09 10° N 04:08:22 85° E 04:14:37 10° S
PSLV R/B 3.9 04:04:27 10° N 04:08:27 42° WNW 04:12:24 10° SW
Cosmos 2360 Rocket 3.7 04:07:28 10° S 04:12:42 40° ESE 04:17:57 10° NE
H-2A R/B 3.5 04:11:00 10° SW 04:14:05 18° W 04:17:12 10° NW
ERS-2 3.3 04:11:54 10° SSW 04:14:47 22° W 04:17:43 10° NW
CZ-2C R/B 2.8 04:11:10 10° N 04:16:02 47° WNW 04:20:57 10° SW
NOSS 3-4 (A) 3.9 04:11:42 10° NW 04:18:35 77° SW 04:26:16 10° SE
NOSS 3-4 (C) 3.9 04:11:48 10° NW 04:18:42 77° SW 04:26:23 10° SE
Cosmos 1697 Rocket 3.9 04:14:31 10° W 04:19:09 25° NW 04:23:47 10° NNE
PAYLOAD A 4.4 04:15:13 10° N 04:19:33 37° WNW 04:23:51 10° SW
METEOR-M 4.4 04:15:01 10° NNE 04:20:25 78° ESE 04:25:46 10° S
USA 267 3.7 04:15:49 10° ENE 04:22:12 58° N 04:28:36 10° W
Cosmos 1980 Rocket 3.0 04:17:40 10° WSW 04:22:53 36° NW 04:28:07 10° NNE
FENGYUN 3A 3.7 04:18:20 10° NNE 04:23:46 86° WNW 04:29:10 10° SSW
Cosmos 2278 Rocket 4.3 04:19:04 10° NNW 04:23:51 27° NE 04:28:35 10° E
Cosmos 1844 4.1 04:19:08 10° NNW 04:24:44 70° ENE 04:30:16 10° SE
Cosmos 1459 Rocket 4.0 04:21:44 10° NNW 04:27:45 61° W 04:33:40 10° S
Cosmos 2322 Rocket 2.3 04:22:14 10° SSW 04:27:55 85° ESE 04:33:40 10° NNE
SJ-12 4.4 04:24:04 10° NNE 04:28:11 67° ESE 04:32:18 10° S
Cosmos 2263 Rocket 3.1 04:23:36 10° NW 04:28:13 26° WSW 04:32:49 10° SSW
CZ-4C R/B 3.6 04:22:16 10° NW 04:28:57 57° NE 04:36:50 10° ESE
NOSS 3-3 (A) 4.1 04:24:00 10° SW 04:29:55 71° NW 04:36:44 10° NE
NOSS 3-3 (C) 4.1 04:24:10 10° SW 04:30:02 72° NW 04:36:49 10° NE
Cosmos 2123 Rocket 4.4 04:26:36 10° S 04:32:49 74° E 04:39:07 10° NNE
